• Join FlightAware (Why Join?)
  • Login
  • US Flag 
12:00PM EST


 

Airport Tracker/Info


-or-


 

Live Flight TrackerFlight Track Log ✈ SWA34 ✈ 24-Apr-2013 ✈ KDAL - KTUL

Flight Track Log - Related Links

Times and Time Zones

All times are in EDT time to prevent confusion due to time zone crossing. See the SWA34 flight status page for this flight to view local times or setup timezone preferences in your user account.

Time Position Orientation Groundspeed Altitude Reporting Facility
EDT Latitude Longitude Course Direction KTS MPH feet Rate Location/Type
05:23PM 32.9333 -96.9667 301° West 213 245 6,600  Level Dallas / Fort Worth TRACON
05:24PM 33.0269 -97.0392 327° Northwest 263 303 10,500 2,122 Climbing Fort Worth Center
05:25PM 33.1292 -97.0189 North 266 306 12,400 2,370 Climbing Fort Worth Center
05:26PM 33.2147 -97.0039 North 335 386 15,200 2,579 Climbing Fort Worth Center
05:27PM 33.3494 -96.7601 North  Level FlightAware Approximate
05:27PM 33.3275 -96.9858 North 360 414 17,600  Level Fort Worth Center
05:28PM 33.4317 -96.9653 North 372 428 19,400 1,866 Climbing Fort Worth Center
05:29PM 33.5381 -96.9300 15° North 385 443 21,300 1,785 Climbing Fort Worth Center
05:30PM 33.6506 -96.8844 19° North 408 470 23,000 1,600 Climbing Fort Worth Center
05:31PM 33.7650 -96.8389 18° North 426 490 24,500 1,563 Climbing Fort Worth Center
05:32PM 33.8817 -96.7956 17° North 426 490 26,100 1,488 Climbing Fort Worth Center
05:33PM 33.9983 -96.7494 18° North 433 498 27,500 1,250 Climbing Fort Worth Center
05:34PM 34.1006 -96.7061 19° North 443 510 28,600 1,361 Climbing Fort Worth Center
05:35PM 34.2233 -96.6575 18° North 443 510 30,200 1,438 Climbing Fort Worth Center
05:36PM 34.3461 -96.6111 17° North 443 510 31,500 1,350 Climbing Fort Worth Center
05:37PM 34.4606 -96.5572 21° North 443 510 32,900 403 Climbing Fort Worth Center
05:38PM 34.5792 -96.5081 19° North 443 510 32,300 -1,041 Descending Fort Worth Center
05:39PM 34.6956 -96.4564 20° North 443 510 30,800 -1,550 Descending Fort Worth Center
05:40PM 34.8119 -96.4044 20° North 443 510 29,200 -1,513 Descending Fort Worth Center
05:41PM 34.9222 -96.3575 19° North 437 503 27,800 -2,033 Descending Fort Worth Center
05:42PM 35.0322 -96.3081 20° North 424 488 25,100 -1,900 Descending Fort Worth Center
05:43PM 35.1403 -96.2608 20° North 418 481 24,000 -1,800 Descending Fort Worth Center
05:44PM 35.2461 -96.2136 20° North 407 468 21,500 -2,926 Descending Fort Worth Center
05:45PM 35.3644 -96.1611 20° North 407 468 18,100 -2,749 Descending Fort Worth Center
05:48PM 35.6094 -96.0506 20° North 401 461 12,200 -2,406 Descending Kansas City Center
05:49PM 35.7064 -96.0117 18° North 375 432 10,200 -1,232 Descending Kansas City Center
05:50PM 35.7850 -95.9731 22° Northeast 325 374 9,900 -931 Descending Kansas City Center
05:51PM 35.8514 -95.9131 36° Northeast 289 333 8,400 -1,397 Descending Kansas City Center
05:51PM 35.8586 -95.9028 49° Northeast 302 348 8,200 -1,770 Descending Kansas City Center
05:52PM 35.9153 -95.8533 35° Northeast 283 326 6,600 -1,688 Descending Kansas City Center
05:52PM 35.9225 -95.8442 46° Northeast 289 333 6,400 -1,391 Descending Kansas City Center
05:53PM 35.9867 -95.8053 26° Northeast 257 296 5,000 -1,355 Descending Kansas City Center
05:54PM 36.0644 -95.7808 14° North 244 281 3,600 -1,172 Descending Kansas City Center
05:55PM 36.1269 -95.7767 North 233 268 2,500 -672 Descending Kansas City Center
05:56PM 36.1817 -95.7797 357° North 192 221 2,300 -496 Descending Kansas City Center
05:57PM 36.1967 -95.8294 291° West 151 174 1,500 -722 Descending Kansas City Center
05:58PM 36.1950 -95.8858 268° West 161 185 700 -658 Descending Kansas City Center
06:00PM 36.1984 -95.8881 270° West  Level Estimated
06:07PM 36.1984 -95.8881 270° West  Level Estimated